Weather History for Kendall, FL

Change the Weather History Date:

Friday, December 7, 2012

  Actual Average Record
Temperature  
Mean Temperature 72 °F -  
Max Temperature 80 °F 76 °F 84 °F (2006)
Min Temperature 64 °F 55 °F 41 °F (2010)
Cooling Degree Days 7    
Growing Degree Days 22 (Base 50)    
Moisture  
Dew Point 67 °F    
Average Humidity 87    
Maximum Humidity 100    
Minimum Humidity 64    
Precipitation  
Precipitation 0.24 in - - ()
Sea Level Pressure  
Sea Level Pressure 29.95 in    
Wind  
Wind Speed 3 mph (ESE)    
Max Wind Speed 12 mph    
Max Gust Speed -    
Visibility 8 miles    
Events Rain    
Averages and records for this station are not official NWS values.
T = Trace of Precipitation, MM = Missing Value Source: NWS Daily Summary

Daily Weather History Graph

Daily Weather History Graph

Search for Another Location

Airport:

Trip Planner

Search our weather history database for the weather conditions in past years. The results will help you decide how hot, cold, wet, or windy it might be!

Date:

Astronomy

Dec. 07, 2012 Rise Set
Actual Time 6:55 AM EST 5:31 PM EST
Civil Twilight 6:30 AM EST 5:56 PM EST
Nautical Twilight 6:02 AM EST 6:24 PM EST
Astronomical Twilight 5:34 AM EST 6:52 PM EST
Moon 12:45 AM EST (12/7) 12:58 PM EST (12/7)
Length of Visible Light 11h 25m
Length of Day
10h 35m
Last Quarter, 39% of the Moon is Illuminated
Dec 7
Last Quarter
Dec 13
New
Dec 20
First Quarter
Dec 28
Full
Jan 4
Last Quarter

Hourly Weather History & Observations

Time (EST) Temp. Heat Index Dew Point Humidity Pressure Visibility Wind Dir Wind Speed Gust Speed Precip Events Conditions
12:53 AM 66.0 °F - 64.0 °F 93% 29.95 in 10.0 mi Calm Calm - N/A   Scattered Clouds
1:53 AM 69.1 °F - 66.9 °F 93% 29.94 in 10.0 mi East 5.8 mph - N/A   Overcast
2:53 AM 70.0 °F - 68.0 °F 93% 29.92 in 10.0 mi South 6.9 mph - 0.01 in Rain Light Rain
3:53 AM 68.0 °F - 66.9 °F 96% 29.91 in 10.0 mi Calm Calm - 0.00 in   Scattered Clouds
4:53 AM 66.9 °F - 66.0 °F 97% 29.92 in 1.8 mi Calm Calm - N/A   Partly Cloudy
5:10 AM 66.2 °F - 66.2 °F 100% 29.93 in 0.8 mi Calm Calm - N/A   Mist
5:39 AM 64.4 °F - 64.4 °F 100% 29.94 in 1.2 mi Calm Calm - N/A   Scattered Clouds
5:53 AM 64.0 °F - 64.0 °F 100% 29.94 in 0.8 mi Calm Calm - N/A   Mist
5:58 AM 64.4 °F - 64.4 °F 100% 29.94 in 0.8 mi Calm Calm - N/A   Clear
6:15 AM 64.4 °F - 64.4 °F 100% 29.94 in 1.0 mi ENE 3.5 mph - N/A   Mostly Cloudy
6:22 AM 64.4 °F - 64.4 °F 100% 29.94 in 3.0 mi Calm Calm - 0.00 in Rain Light Rain
6:35 AM 68.0 °F - 66.2 °F 94% 29.95 in 1.8 mi Calm Calm - 0.19 in Rain Heavy Rain
6:43 AM 69.8 °F - 68.0 °F 94% 29.95 in 3.0 mi Variable 3.5 mph - 0.23 in Rain Heavy Rain
6:53 AM 69.1 °F - 68.0 °F 96% 29.95 in 10.0 mi ENE 4.6 mph - 0.23 in Rain Light Rain
7:46 AM 71.6 °F - 69.8 °F 94% 29.96 in 10.0 mi Calm Calm - 0.00 in   Overcast
7:53 AM 71.1 °F - 69.1 °F 93% 29.96 in 10.0 mi Calm Calm - 0.00 in   Mostly Cloudy
8:53 AM 75.9 °F - 70.0 °F 82% 29.97 in 10.0 mi SE 4.6 mph - N/A   Clear
9:39 AM 75.2 °F - 68.0 °F 78% 29.99 in 10.0 mi SE 9.2 mph - N/A   Mostly Cloudy
9:53 AM 77.0 °F - 66.9 °F 71% 29.99 in 10.0 mi SSE 8.1 mph - N/A   Mostly Cloudy
10:10 AM 77.0 °F - 68.0 °F 74% 29.99 in 10.0 mi SE 8.1 mph - N/A   Scattered Clouds
10:53 AM 79.0 °F - 68.0 °F 69% 29.98 in 10.0 mi SE 8.1 mph - N/A   Partly Cloudy
11:53 AM 80.1 °F 82.3 °F 66.9 °F 64% 29.97 in 10.0 mi SE 9.2 mph - N/A   Partly Cloudy
12:53 PM 79.0 °F - 66.9 °F 66% 29.94 in 10.0 mi ESE 8.1 mph - N/A   Scattered Clouds
1:53 PM 79.0 °F - 68.0 °F 69% 29.91 in 10.0 mi SSE 9.2 mph - N/A   Partly Cloudy
2:53 PM 79.0 °F - 66.9 °F 66% 29.91 in 10.0 mi East 11.5 mph - N/A   Partly Cloudy
3:53 PM 78.1 °F - 68.0 °F 71% 29.91 in 10.0 mi ESE 10.4 mph - N/A   Scattered Clouds
4:53 PM 75.9 °F - 68.0 °F 76% 29.93 in 10.0 mi ESE 6.9 mph - N/A   Scattered Clouds
5:53 PM 73.0 °F - 68.0 °F 84% 29.94 in 10.0 mi ESE 4.6 mph - N/A   Scattered Clouds
6:53 PM 72.0 °F - 68.0 °F 87% 29.96 in 10.0 mi ESE 4.6 mph - N/A   Mostly Cloudy
7:53 PM 71.6 °F - 68.0 °F 88% 29.97 in 10.0 mi ESE 5.8 mph - N/A   Clear
8:53 PM 71.1 °F - 68.0 °F 90% 29.98 in 10.0 mi ESE 5.8 mph - N/A   Clear
9:53 PM 71.1 °F - 68.0 °F 90% 29.99 in 10.0 mi ESE 4.6 mph - N/A   Clear
10:53 PM 68.0 °F - 64.9 °F 90% 29.99 in 10.0 mi East 4.6 mph - N/A   Clear
11:53 PM 68.0 °F - 64.9 °F 90% 29.99 in 10.0 mi Calm Calm - N/A   Clear